Regional Weather Roundup
Issued by NWS

Home | Current Version | Previous Version | Text Only | Print | Product List | Glossary Off
Versions: 1 2 3 4 5 6 7 8 9 10 11 12 13 14 15 16 17 18 19 20 21 22 23 24 25 26 27

000
ASUS45 KBOU 030707
RWRCO

WEATHER ROUNDUP FOR COLORADO
NATIONAL WEATHER SERVICE DENVER/BOULDER CO
1200 AM MST SAT DEC 03 2016

NOTE: "FAIR" INDICATES FEW OR NO CLOUDS BELOW 12000 FEET WITH NO
SIGNIFICANT WEATHER AND/OR OBSTRUCTIONS TO VISIBILITY.

COZ001>005-013-030-031-030800-
...NORTHWEST COLORADO...

CITY           SKY/WX    TMP DP  RH WIND       PRES   REMARKS
CRAIG          CLOUDY    18  13  80 CALM      30.19F
HAYDEN         CLOUDY    19  10  68 CALM      30.16F
MEEKER         CLOUDY    12   9  87 CALM      30.19F
MOUNT WERNER   NOT AVBL
STEAMBOAT SPGS NOT AVBL
WALDEN         NOT AVBL
$$

COZ006>008-011-030800-
...WEST CENTRAL VALLEYS...

CITY           SKY/WX    TMP DP  RH WIND       PRES   REMARKS
GRAND JUNCTION FAIR      22  18  85 E5        30.20S WCI  16
MONTROSE       CLOUDY    25  22  88 S5        30.22S WCI  19
EAGLE          LGT SNOW  23  20  88 CALM      30.18F FOG
RIFLE          CLOUDY    25  19  78 CALM      30.21S
DELTA          CLOUDY    32  28  87 CALM      30.21S FOG
NUCLA          FAIR      27  23  86 E5        30.20F WCI  21
$$

COZ017>023-064>068-030800-
...SOUTHWEST COLORADO...

CITY           SKY/WX    TMP DP  RH WIND       PRES   REMARKS
DURANGO        FAIR      26  22  84 CALM      30.08S
CORTEZ         MOCLDY    20  19  96 E3        30.12S FOG
PAGOSA SPRINGS FAIR      23  23  99 CALM      30.09S
TELLURIDE      LGT SNOW  19  17  94 SE3       30.12S
WOLF CREEK PAS NOT AVBL
$$

COZ009-010-012-014-032>034-037-058>063-030800-
...CENTRAL COLORADO...

CITY           SKY/WX    TMP DP  RH WIND       PRES   REMARKS
ASPEN          LGT SNOW  20  19  96 CALM      30.12S FOG
BUENA VISTA    FLURRIES  12   9  85 SW5       30.12F WCI   5
COPPER MTN     NOT AVBL
BERTHOUD PASS  NOT AVBL
COTTONWOOD PAS NOT AVBL
GUNNISON       CLOUDY    16  12  84 CALM      30.14R
KREMMLING      NOT AVBL
LEADVILLE      FAIR       2  -2  83 NE5       30.05F WCI  -8
SALIDA         CLOUDY    19  17  89 CALM      30.22S
SUNLIGHT       NOT AVBL
WILKERSON PASS NOT AVBL
$$

COZ069>075-030800-
...SAN LUIS VALLEY/SANGRE DE CRISTO MOUNTAINS...

CITY           SKY/WX    TMP DP  RH WIND       PRES   REMARKS
ALAMOSA        CLOUDY    20  18  92 NW3       30.11F
LA VETA PASS   NOT AVBL
SAGUACHE       NOT AVBL
$$

COZ035-036-038>040-030800-
...NORTHERN COLORADO FRONT RANGE...

CITY           SKY/WX    TMP DP  RH WIND       PRES   REMARKS
DENVER INTL AP FAIR      16  12  84 S7        30.12F WCI   6
DMNS CITY PARK   N/A     22  18  82 SE6       30.12F WCI  15
AURORA         PTCLDY    22  16  78 S7        30.11F WCI  13
FRONT RANGE AP NOT AVBL
ERIE MUNI ARPT NOT AVBL
BOULDER MUN AP NOT AVBL
CENTENNIAL     FAIR      23  16  74 S12       30.10F WCI  12
BROOMFIELD     NOT AVBL
FORT COLLINS   FAIR      25  19  80 CALM      30.14F
LONGMONT       NOT AVBL
$$

COZ041-046-047-076>085-087-088-030800-
...PIKES PEAK/PALMER DIVIDE AND SOUTHERN FOOTHILLS...

CITY           SKY/WX    TMP DP  RH WIND       PRES   REMARKS
COLO. SPRINGS  CLOUDY    25  17  72 S13       30.15F WCI  14
A. F. ACADEMY  CLOUDY    20  17  84 SE5       30.12F WCI  14
SCHRIEVER AFB  NOT AVBL
ELLICOTT       CLOUDY     1 N/A N/A S9        30.15F WCI -14
FALCON         CLOUDY    22  15  73 S6        30.14F WCI  15
FORT CARSON    CLOUDY    27  18  70 S9        30.15F WCI  17
LIMON          MOCLDY    15  13  91 SE7       30.17F WCI   5
MONUMENT HILL  NOT AVBL
TRINIDAD       LGT SNOW  26  21  81 CALM      30.18F
$$

COZ042>045-048>051-090-091-030800-
...NORTHEAST COLORADO...

CITY           SKY/WX    TMP DP  RH WIND       PRES   REMARKS
GREELEY ARPT   FAIR      18  14  84 SE5       30.16S WCI  11
AKRON          CLOUDY    29  21  72 S10       30.17F WCI  20
BURLINGTON     CLOUDY    31  22  69 S7        30.22F WCI  24
WRAY           NOT AVBL
STERLING       NOT AVBL
HOLYOKE        NOT AVBL
FORT MORGAN    FAIR      21  17  83 CALM      30.18S
$$

COZ086-089-092>099-030800-
...SOUTHEAST COLORADO...

CITY           SKY/WX    TMP DP  RH WIND       PRES   REMARKS
PUEBLO         CLOUDY    30  22  72 CALM      30.20F
LA JUNTA       CLOUDY    31  19  61 SW7       30.22F WCI  24
LAMAR          MIX PCPN  34  17  50 CALM      30.22F
SPRINGFIELD      N/A     32  13  45 N3        30.20F
$$




USA.gov is the U.S. government's official web portal to all federal, state and local government web resources and services.